User: anonymous   Login
Location: Newark
(25.6108°S, 54.5803°W)
Time: 02:46:33
(UTC+00:00)
Language:

deb Explorer IX - Orbit

View from above orbital plane
View from above orbital plane
View from above satellite
View from above satellite

Ground track
Ground track

The orbit data is extracted from the following two-line orbital elements,

1 00085U 61004C   21127.44993461  .00000410  00000-0  10715-3 0  9999
2 00085  38.7728 166.6554 0386756 139.8904 223.1076 14.21659648977204
Epoch (UTC): 07 May 2021 10:47:54
Eccentricity: 0.0386756
inclination: 38.7728°
perigee height: 541 km
apogee height: 1098 km
right ascension of ascending node: 166.6554°
argument of perigee: 139.8904°
revolutions per day: 14.21659648
mean anomaly at epoch: 223.1076°
orbit number at epoch: 97720

The dashed part of the orbit path shows where the satellite is in the earth's shadow,  

DLR